Flag for U.S.A. Weather past 2 weeks in Escondido, California, U.S.A.

Now
52 °F

Clear.


Feels Like: 52 °F
Forecast: 61 / 93 °F
Wind: No wind

Location: Ramona Airport

Current Time: Oct 2, 2014 at 4:51:14 AM

Latest Report: Oct 2, 2014 at 3:53 AM


Visibility: 9 mi

Pressure: 29.88 "Hg

Humidity: 89%

Dew point: 49 °F

Location of EscondidoLocation

Historic Weather in Escondido — Graph

°F

Escondido temperature yesterday

Maximum temperature yesterday: 83 °F (at 12:53 PM)
Minimum temperature yesterday: 49 °F (at 6:53 AM)
Average temperature yesterday: 66 °F

Past Weeks' High & Low Weather Summary

 TemperatureHumidityPressure
High96 °F (Sep 17, 12:53 PM)100% (Sep 22, 4:53 AM)29.99 "Hg (Sep 22, 4:53 AM)
Low49 °F (Oct 1, 6:53 AM)17% (Sep 24, 9:53 AM)29.70 "Hg (Sep 17, 3:53 PM)
Average69 °F62%29.87 "Hg
* Reported Sep 17 2:53 AM — Oct 2 2:53 AM, Escondido, Weather by CustomWeather, © 2014

Note: Actual official high and low records may vary slightly from our data, if they occured in-between our weather recording intervals... More about our weather records

Advertising

Escondido weather history for previous 24 hours

 ConditionsComfort  
Time TempWeatherWind HumidityBarometerVisibility
2:53 AM
Oct 2
55 °FClear.3 mph90%29.87 "Hg9 mi
1:53 AM55 °FClear.3 mph83%29.86 "Hg10 mi
12:53 AM55 °FClear.No wind83%29.86 "Hg10 mi
11:53 PM
Oct 1
57 °FClear.No wind87%29.85 "Hg10 mi
10:53 PM60 °FClear.No wind83%29.85 "Hg10 mi
9:53 PM61 °FClear.No wind78%29.85 "Hg10 mi
8:53 PM63 °FMild.No wind84%29.85 "Hg10 mi
7:53 PM65 °FClear.3 mph76%29.84 "Hg10 mi
6:53 PM68 °FSunny.7 mph73%29.82 "Hg10 mi
5:53 PM74 °FSunny.9 mph60%29.80 "Hg10 mi
4:53 PM77 °FSunny.10 mph54%29.78 "Hg10 mi
3:53 PM79 °FSunny.10 mph48%29.77 "Hg10 mi
2:53 PM81 °FSunny.12 mph42%29.75 "Hg10 mi
1:53 PM83 °FSunny.8 mph36%29.75 "Hg10 mi
12:53 PM83 °FSunny.9 mph28%29.76 "Hg10 mi
11:53 AM80 °FSunny.10 mph35%29.78 "Hg10 mi
10:53 AM78 °FSunny.6 mph33%29.80 "Hg10 mi
9:53 AM74 °FSunny.No wind43%29.81 "Hg10 mi
8:53 AM68 °FSunny.No wind47%29.81 "Hg10 mi
7:53 AM58 °FSunny.No wind72%29.81 "Hg10 mi
6:53 AM49 °FClear.No wind84%29.81 "Hg10 mi
5:53 AM51 °FClear.No wind83%29.78 "Hg10 mi
4:53 AM53 °FClear.No wind83%29.76 "Hg10 mi
Weather by CustomWeather, © 2014

See weather overviewHow to use our weather pages